This is the latest recevied weather packets stored in our database for station/object KB1RMA-13. If no packets are shown the sender has not sent any weather packets the latest 1 day(s).
| Time | Temp. | Humidity | Pressure | Rain* | Wind** | Luminosity | Snow |
|---|---|---|---|---|---|---|---|
| 1778017332 | 23.33° C | 50% | 1004.8 hPa | 0 mm | 7.6 m/s, 200° | 171 W/m² | - |
| 1778017029 | 23.33° C | 50% | 1004.7 hPa | 0 mm | 4.47 m/s, 198° | 238 W/m² | - |
| 1778016726 | 22.78° C | 51% | 1004.6 hPa | 0 mm | 6.26 m/s, 198° | 181 W/m² | - |
| 1778016422 | 22.78° C | 52% | 1004.5 hPa | 0 mm | 4.92 m/s, 174° | 215 W/m² | - |
| 1778016120 | 23.33° C | 52% | 1004.7 hPa | 0 mm | 5.36 m/s, 185° | 235 W/m² | - |
| 1778015816 | 23.89° C | 48% | 1004.4 hPa | 0 mm | 7.6 m/s, 201° | 319 W/m² | - |
| 1778015514 | 23.89° C | 48% | 1004.4 hPa | 0 mm | 8.94 m/s, 198° | 287 W/m² | - |
| 1778015210 | 24.44° C | 48% | 1004.3 hPa | 0 mm | 4.47 m/s, 185° | 259 W/m² | - |
| 1778014907 | 24.44° C | 48% | 1004.3 hPa | 0 mm | 9.83 m/s, 198° | 263 W/m² | - |
| 1778014604 | 25° C | 47% | 1004.5 hPa | 0 mm | 6.71 m/s, 172° | 314 W/m² | - |
| 1778014302 | 25° C | 47% | 1004.2 hPa | 0 mm | 8.94 m/s, 182° | 403 W/m² | - |
| 1778014003 | 25° C | 47% | 1004.1 hPa | 0 mm | 4.92 m/s, 178° | 365 W/m² | - |
| 1778013697 | 25.56° C | 47% | 1004.2 hPa | 0 mm | 5.36 m/s, 164° | 426 W/m² | - |
| 1778013393 | 25.56° C | 45% | 1004.5 hPa | 0 mm | 8.94 m/s, 183° | 411 W/m² | - |
| 1778013091 | 26.11° C | 45% | 1004.4 hPa | 0 mm | 9.39 m/s, 182° | 151 W/m² | - |
| 1778012786 | 26.11° C | 44% | 1004.3 hPa | 0 mm | 4.92 m/s, 181° | 136 W/m² | - |
| 1778012482 | 26.67° C | 43% | 1004.4 hPa | 0 mm | 11.62 m/s, 201° | 158 W/m² | - |
| 1778012179 | 26.67° C | 43% | 1004.4 hPa | 0 mm | 8.94 m/s, 189° | 323 W/m² | - |
| 1778011877 | 26.11° C | 44% | 1004.2 hPa | 0 mm | 11.18 m/s, 168° | 529 W/m² | - |
| 1778011575 | 26.11° C | 45% | 1004.3 hPa | 0 mm | 6.71 m/s, 179° | 547 W/m² | - |
| 1778011271 | 26.67° C | 45% | 1004.4 hPa | 0 mm | 8.05 m/s, 170° | 559 W/m² | - |
| 1778010968 | 26.11° C | 45% | 1004.5 hPa | 0 mm | 5.81 m/s, 193° | 574 W/m² | - |
| 1778010665 | 26.11° C | 45% | 1004.5 hPa | 0 mm | 7.6 m/s, 180° | 598 W/m² | - |
| 1778010362 | 26.11° C | 46% | 1004.6 hPa | 0 mm | 8.94 m/s, 173° | 561 W/m² | - |
| 1778010058 | 26.11° C | 46% | 1004.8 hPa | 0 mm | 7.15 m/s, 172° | 609 W/m² | - |
* Rain latest hour (hover to see other rain measurements)
** Current wind speed in m/s (hover to see current wind gust speed)